EW7883 Weather Reports


time (UTC)temp
C
wind
direction
speed
KPH
gust
KPH
rain 1hr
cm
rain 24hr
cm
rain mn
cm
humidity
%
barometer
mb
20260503193035 16 257 17.7 38.6 0.00 0.00 0.00 37 1008.3
20260503191529 17 360 12.9 33.8 0.00 0.00 0.00 37 1008.3
20260503190038 17 360 9.7 25.7 0.00 0.00 0.00 38 1008.5
20260503184521 17 248 11.3 29.0 0.00 0.00 0.00 36 1008.7
20260503183016 16 230 9.7 32.2 0.00 0.00 0.00 36 1009.0
20260503181526 16 245 12.9 25.7 0.00 0.00 0.00 38 1009.3
20260503180015 16 250 12.9 32.2 0.00 0.00 0.00 38 1009.4
20260503174502 15 263 12.9 29.0 0.00 0.00 0.00 38 1009.7
20260503173110 15 288 12.9 24.1 0.00 0.00 0.00 39 1009.9
20260503171554 15 360 6.4 22.5 0.00 0.00 0.00 43 1010.2
20260503081515 1 285 0.0 3.2 0.00 0.00 0.00 31 1013.0
20260503071603 1 285 0.0 0.0 0.00 0.00 0.00 26 1013.1
20260503054538 2 285 0.0 0.0 0.00 0.00 0.00 22 1013.7
20260503053028 2 285 0.0 0.0 0.00 0.00 0.00 20 1013.7
20260503051524 2 285 0.0 0.0 0.00 0.00 0.00 15 1013.9
20260503050022 2 285 0.0 0.0 0.00 0.00 0.00 14 1013.9
20260503044514 2 285 0.0 0.0 0.00 0.00 0.00 16 1014.0
20260503043010 2 285 0.0 0.0 0.00 0.00 0.00 19 1013.9
20260503041506 2 285 0.0 0.0 0.00 0.00 0.00 22 1014.0
20260503040010 2 285 0.0 0.0 0.00 0.00 0.00 24 1014.2
20260503034601 2 285 0.0 0.0 0.00 0.00 0.00 27 1014.2
20260503033115 2 285 0.0 0.0 0.00 0.00 0.00 32 1014.2
20260503031551 2 285 0.0 0.0 0.00 0.00 0.00 36 1014.3
20260503030049 3 285 0.0 0.0 0.00 0.00 0.00 44 1014.2
20260503024543 3 284 0.0 0.0 0.00 0.00 0.00 48 1014.3
20260503023041 3 285 0.0 0.0 0.00 0.00 0.00 53 1014.4
20260503021534 4 285 0.0 0.0 0.00 0.00 0.00 56 1014.4
20260503020030 4 285 0.0 0.0 0.00 0.00 0.00 57 1014.3
20260503014529 5 285 0.0 0.0 0.00 0.00 0.00 57 1014.3
20260503013021 6 285 0.0 0.0 0.00 0.00 0.00 56 1014.2
20260503011526 6 285 0.0 0.0 0.00 0.00 0.00 54 1014.2
20260503010011 7 285 0.0 0.0 0.00 0.00 0.00 53 1014.1
20260503004507 7 285 0.0 0.0 0.00 0.00 0.00 48 1014.1
20260503003003 7 285 0.0 0.0 0.00 0.00 0.00 45 1014.0
20260503001606 8 284 0.0 3.2 0.00 0.00 0.00 44 1013.9
20260503000056 8 284 0.0 6.4 0.00 0.00 0.00 44 1014.0
20260502234555 8 292 1.6 12.9 0.00 0.00 0.00 44 1013.9
20260502233048 8 309 1.6 11.3 0.00 0.00 0.00 43 1014.0
20260502231544 8 360 3.2 9.7 0.00 0.00 0.00 43 1014.1
20260502230043 8 297 0.0 8.0 0.00 0.00 0.00 44 1014.1
20260502224543 8 360 1.6 9.7 0.00 0.00 0.00 43 1014.1
20260502223043 8 324 3.2 17.7 0.00 0.00 0.00 43 1014.1
20260502221542 8 293 6.4 14.5 0.00 0.00 0.00 41 1014.1
20260502220051 8 322 1.6 16.1 0.00 0.00 0.00 44 1014.1
20260502214533 8 309 4.8 16.1 0.00 0.00 0.00 43 1014.1
20260502213034 8 292 3.2 11.3 0.00 0.00 0.00 43 1014.2
20260502211522 8 274 6.4 19.3 0.00 0.00 0.00 44 1014.3
20260502210022 8 310 3.2 22.5 0.00 0.00 0.00 44 1014.3
20260502204514 8 325 4.8 16.1 0.00 0.00 0.00 43 1014.3
20260502203010 8 290 3.2 17.7 0.00 0.00 0.00 42 1014.4
20260502201505 8 312 0.0 8.0 0.00 0.00 0.00 43 1014.5
20260502200001 8 313 8.0 16.1 0.00 0.00 0.00 42 1014.7
20260502194558 8 298 4.8 17.7 0.00 0.00 0.00 42 1014.7